Tracking 19562 objects as of 21-Mar-2019
HD Live streaming from Space Station
objects crossing your sky now

COSMOS 1621

Track COSMOS 1621 now!
10-day predictions
COSMOS 1621 is classified as:


NORAD ID: 15473
Int'l Code: 1985-003E
Perigee: 1,401.6 km
Apogee: 1,421.8 km
Inclination: 82.6 °
Period: 113.9 minutes
Semi major axis: 7782 km
RCS: 0.2161 m2 (medium)
Launch date: January 15, 1985
Source: Commonwealth of Independent States (former USSR) (CIS)
Launch site: PLESETSK MISSILE AND SPACE COMPLEX (PKMTR)
aabbcc
Your satellite tracking list
Your tracking list is empty




NASA's NSSDC Master Catalog

Two Line Element Set (TLE):
1 15473U 85003E   19080.12536427  .00000037  00000-0  14462-3 0  9994
2 15473  82.6124 323.5344 0012952  46.3761 106.5941 12.64471496577565
Source of the keplerian elements: AFSPC